Regional Weather Roundup
Issued by NWS Portland, ME

Home | Current Version | Previous Version | Text Only | Print | Product List | Glossary On
Versions: 1 2 3 4 5 6 7 8 9 10 11 12 13 14 15 16 17 18 19 20 21 22 23 24 25 26 27 28 29 30 31 32 33 34 35 36 37 38 39 40 41 42 43 44 45 46 47 48 49 50
000
ASUS41 KGYX 201010
RWRGYX
WEATHER ROUNDUP FOR MAINE AND NEW HAMPSHIRE
NATIONAL WEATHER SERVICE GRAY ME
600 AM EDT MON AUG 20 2018

MEZ002-005-006-010-012-015-018-020-021-024-026-027-029-201100-
MAINE

CITY           SKY/WX    TMP DP  RH WIND       PRES   REMARKS
PORTLAND       FAIR      60  58  92 CALM      30.18R
SANFORD        CLOUDY    62  59  90 N5        30.18R
BAR HARBOR     FAIR      57  56  96 N5        30.19R
WISCASSET      FAIR      57  57 100 CALM      30.19R
ROCKLAND       CLOUDY    62  59  90 VRB5      30.18R
FRYEBURG       FOG       52  52 100 CALM      30.22R VSB 3/4
LEWISTONAUBURN FAIR      55  54  96 CALM      30.20R
AUGUSTA        MOCLDY    57  57 100 NW7       30.21R
WATERVILLE     MOCLDY    58  56  93 N5        30.19R
BANGOR         MOCLDY    58  57  97 N6        30.21R
GREENVILLE       N/A     55  53  93 CALM      30.21
MILLINOCKET    FAIR      52  49  89 CALM      30.23R
HOULTON        MOCLDY    46  46 100 CALM      30.22R
PRESQUE ISLE   FAIR      46  45  93 CALM      30.25R FOG
FRENCHVILLE    FAIR      54  49  83 E6        30.22R
CARIBOU        FAIR      50  47  89 CALM      30.23R
$$

NHZ002-005-008-009-011-012-014-201100-
NEW HAMPSHIRE

CITY           SKY/WX    TMP DP  RH WIND       PRES   REMARKS
PORTSMOUTH     CLOUDY    64  59  82 NE7       30.15R
ROCHESTER      CLOUDY    62  60  93 NW8       30.16R
NASHUA         CLOUDY    64  62  93 NW7       30.16R
MANCHESTER     CLOUDY    65  60  84 N9        30.15R
CONCORD        CLOUDY    61  59  93 NW7       30.18R
LACONIA        MOCLDY    58  57  97 CALM      30.20R
PLYMOUTH       FOG       56  55  97 CALM      30.21R VSB 1/2
BERLIN         FOG       50  50 100 CALM      30.24R VSB 1/4
WHITEFIELD     FOG       46  44  93 CALM      30.23R VSB 1
JAFFREY        CLOUDY    61  60  97 VRB3      30.20R
KEENE          FAIR     N/A N/A N/A S3        30.19R
LEBANON        FOG       60  57  89 N3        30.20R VSB 1/4
MT WASHINGTON  PTCLDY    45  36  70 N17         N/A
$$

VTZ005-007-008-201100-
VERMONT

CITY           SKY/WX    TMP DP  RH WIND       PRES   REMARKS
ST JOHNSBURY     N/A     54  54 100 MISG      30.21R
MONTPELIER     FOG       57  57 100 CALM      30.25R VSB 1/4
BURLINGTON     FAIR      62  57  83 SE5       30.17R
$$

MAZ007-012-024-CTZ003-RIZ002-NYZ038-NYZ072-201100-
SOUTHERN NEW ENGLAND AND NY

CITY           SKY/WX    TMP DP  RH WIND       PRES   REMARKS
BOSTON         MOCLDY    67  62  84 N10       30.13R
WORCESTER      CLOUDY    60  60 100 N7        30.16R
NANTUCKET      CLOUDY    66  66 100 NE12      30.05S FOG
PROVIDENCE     CLOUDY    67  63  87 N8        30.11R
HARTFORD       MOCLDY    65  60  84 N7        30.14R
ALBANY         FAIR      60  57  89 NE3       30.17R
NEW YORK CITY  MOCLDY    69  60  73 N8        30.10R
$$

ANZ081-ANZ082-ANZ150-NHZ014-MEZ023>029-201100-
COASTAL MARINE OBSERVATIONS

STATION/POSITION TIME  TEMP    WIND        PRES    WAVE
                       AIR SEA DIR/SP/G            HT/PER
                 (UTC) (F)     (DEG/KT/KT) (MB)    (FT/S)
MOUNT DESERT ROC 1000   56      20/ 14/ 15 1021.3R
MATINICUS ROCK   0900   58      50/ 13/ 13 1020.3F
ISLE OF SHOALS   0900   65      30/ 13/ 14 1019.8R
JEFFREYS LEDGE   0936      68                N/A     4/ 6
$$

.............KEY..............
   WCI - WIND CHILL
   TC  - TEMPERATURE IN CELSIUS
   VSB - VISIBILITY IN MILES
   HX  - HEAT INDEX
   FAIR- INDICATES FEW OR NO CLOUDS BELOW 12,000 FT, WITH NO
         SIGNIFICANT WEATHER AND/OR OBSTRUCTIONS TO VISIBILITY.





USA.gov is the U.S. government's official web portal to all federal, state and local government web resources and services.